This is the latest recevied weather packets stored in our database for station/object KY0TEQ-13. If no packets are shown the sender has not sent any weather packets the latest 10 day(s).
| Time | Temp. | Humidity | Pressure | Rain* | Wind** | Luminosity | Snow |
|---|---|---|---|---|---|---|---|
| 1777653910 | 11.67° C | 41% | 1302.4 hPa | 0 mm | - | 659 W/m² | - |
| 1777653606 | 11.67° C | 42% | 1302.6 hPa | 0 mm | - | 643 W/m² | - |
| 1777653303 | 11.67° C | 39% | 1302.7 hPa | 0 mm | - | 633 W/m² | - |
| 1777652999 | 11.11° C | 42% | 1302.7 hPa | 0 mm | - | 619 W/m² | - |
| 1777652696 | 11.67° C | 42% | 1302.6 hPa | 0 mm | - | 603 W/m² | - |
| 1777652393 | 11.11° C | 43% | 1302.6 hPa | 0 mm | - | 591 W/m² | - |
| 1777652090 | 10.56° C | 43% | 1302.7 hPa | 0 mm | - | 578 W/m² | - |
| 1777651787 | 10.56° C | 43% | 1302.4 hPa | 0 mm | - | 566 W/m² | - |
| 1777651483 | 11.11° C | 42% | 1302.6 hPa | 0 mm | - | 552 W/m² | - |
| 1777651180 | 10.56° C | 43% | 1302.4 hPa | 0 mm | - | 538 W/m² | - |
| 1777650878 | 10° C | 44% | 1302.4 hPa | 0 mm | - | 525 W/m² | - |
| 1777650574 | 10° C | 43% | 1302.7 hPa | 0 mm | - | 510 W/m² | - |
| 1777650271 | 10.56° C | 42% | 1302.9 hPa | 0 mm | - | 495 W/m² | - |
| 1777649969 | 10° C | 40% | 1302.7 hPa | 0 mm | - | 481 W/m² | - |
| 1777649666 | 10.56° C | 40% | 1302.6 hPa | 0 mm | - | 463 W/m² | - |
| 1777649361 | 10.56° C | 40% | 1302.6 hPa | 0 mm | - | 450 W/m² | - |
| 1777649059 | 10° C | 42% | 1302.7 hPa | 0 mm | - | 435 W/m² | - |
| 1777648757 | 10° C | 41% | 1302.8 hPa | 0 mm | - | 420 W/m² | - |
| 1777648453 | 10° C | 39% | 1302.4 hPa | 0 mm | - | 401 W/m² | - |
| 1777648149 | 9.44° C | 40% | 1302.7 hPa | 0 mm | - | 385 W/m² | - |
| 1777647845 | 9.44° C | 38% | 1302.7 hPa | 0 mm | - | 361 W/m² | - |
| 1777647542 | 9.44° C | 37% | 1302.6 hPa | 0 mm | - | 351 W/m² | - |
| 1777647239 | 10° C | 36% | 1302.4 hPa | 0 mm | - | 304 W/m² | - |
| 1777646936 | 9.44° C | 36% | 1302.4 hPa | 0 mm | - | 307 W/m² | - |
| 1777646630 | 8.89° C | 37% | 1302.7 hPa | 0 mm | - | 286 W/m² | - |
* Rain latest hour (hover to see other rain measurements)
** Current wind speed in m/s (hover to see current wind gust speed)